• In Germany
  • List of Countries
  • For 7 days
  • Water Temperature
  • Satellite Maps
  • Weather Map
  • Weather Widgets
  • user-avatar
    Login

    Hourly Weather Oria

    Today, 22 June, Friday

    Time Temperature Precipitation Wind Pressure Humidity
    00:00 +26°C° 0.2 mm 1 mps 749 mmHg 60%
    01:00 +26°C° 0 mm 1 mps 749 mmHg 60%
    02:00 +25°C° 0 mm 1 mps 749 mmHg 60%
    03:00 +25°C° 0 mm 2 mps 749 mmHg 61%
    04:00 +25°C° 0 mm 2 mps 749 mmHg 61%
    05:00 +26°C° 0 mm 2 mps 749 mmHg 58%
    06:00 +27°C° 0 mm 2 mps 749 mmHg 55%
    07:00 +27°C° 0 mm 2 mps 749 mmHg 52%
    08:00 +28°C° 0 mm 2 mps 749 mmHg 48%
    09:00 +29°C° 0 mm 2 mps 749 mmHg 44%
    10:00 +30°C° 0 mm 2 mps 749 mmHg 40%
    11:00 +31°C° 0 mm 3 mps 749 mmHg 38%
    12:00 +31°C° 0 mm 3 mps 749 mmHg 36%
    13:00 +33°C° 0 mm 4 mps 748 mmHg 34%
    14:00 +33°C° 0 mm 4 mps 748 mmHg 35%
    15:00 +32°C° 0 mm 5 mps 748 mmHg 36%
    16:00 +32°C° 0 mm 5 mps 747 mmHg 37%
    17:00 +30°C° 0 mm 5 mps 747 mmHg 44%
    18:00 +29°C° 0 mm 5 mps 747 mmHg 51%
    19:00 +28°C° 0 mm 4 mps 747 mmHg 57%
    20:00 +27°C° 0 mm 4 mps 747 mmHg 61%
    21:00 +27°C° 0 mm 4 mps 747 mmHg 64%
    22:00 +26°C° 0 mm 4 mps 748 mmHg 68%
    23:00 +26°C° 0.1 mm 4 mps 748 mmHg 68%

    Tomorrow, 23 June, Saturday

    Time Temperature Precipitation Wind Pressure Humidity
    00:00 +26°C° 0.1 mm 4 mps 748 mmHg 67%
    01:00 +26°C° 0.1 mm 4 mps 748 mmHg 67%
    02:00 +26°C° 0.8 mm 5 mps 748 mmHg 69%
    03:00 +24°C° 0.8 mm 6 mps 748 mmHg 70%
    04:00 +24°C° 0.8 mm 6 mps 748 mmHg 72%
    05:00 +24°C° 0.6 mm 6 mps 748 mmHg 72%
    06:00 +23°C° 0.6 mm 6 mps 748 mmHg 72%
    07:00 +23°C° 0.6 mm 5 mps 749 mmHg 72%
    08:00 +25°C° 0.8 mm 5 mps 749 mmHg 68%
    09:00 +26°C° 0.8 mm 6 mps 749 mmHg 64%
    10:00 +27°C° 0.8 mm 6 mps 750 mmHg 60%
    11:00 +27°C° 0.3 mm 6 mps 750 mmHg 60%
    12:00 +27°C° 0.3 mm 6 mps 750 mmHg 59%
    13:00 +27°C° 0.3 mm 6 mps 750 mmHg 59%
    14:00 +27°C° 0.1 mm 6 mps 750 mmHg 58%
    15:00 +27°C° 0.1 mm 6 mps 749 mmHg 56%
    16:00 +27°C° 0.1 mm 6 mps 749 mmHg 54%
    17:00 +26°C° 0 mm 6 mps 749 mmHg 55%
    18:00 +24°C° 0 mm 6 mps 749 mmHg 55%
    19:00 +24°C° 0 mm 6 mps 749 mmHg 56%
    20:00 +23°C° 0 mm 6 mps 749 mmHg 55%
    21:00 +23°C° 0 mm 6 mps 749 mmHg 54%
    22:00 +22°C° 0 mm 6 mps 750 mmHg 54%
    23:00 +22°C° 0 mm 6 mps 750 mmHg 55%

    Day after tomorrow, 24 June, Sunday

    Time Temperature Precipitation Wind Pressure Humidity
    00:00 +22°C° 0 mm 6 mps 750 mmHg 56%
    01:00 +22°C° 0 mm 6 mps 750 mmHg 57%
    02:00 +21°C° 0 mm 6 mps 749 mmHg 58%
    03:00 +21°C° 0 mm 5 mps 749 mmHg 58%
    04:00 +21°C° 0 mm 5 mps 749 mmHg 59%
    05:00 +22°C° 0 mm 5 mps 749 mmHg 57%
    06:00 +23°C° 0 mm 5 mps 749 mmHg 55%
    07:00 +25°C° 0 mm 5 mps 749 mmHg 53%
    08:00 +26°C° 0 mm 5 mps 750 mmHg 50%
    09:00 +27°C° 0 mm 5 mps 750 mmHg 46%
    10:00 +28°C° 0 mm 4 mps 750 mmHg 42%
    11:00 +28°C° 0 mm 4 mps 750 mmHg 41%
    12:00 +28°C° 0 mm 4 mps 750 mmHg 39%
    13:00 +28°C° 0 mm 4 mps 750 mmHg 38%
    14:00 +28°C° 0 mm 5 mps 749 mmHg 38%
    15:00 +28°C° 0 mm 5 mps 749 mmHg 37%
    16:00 +28°C° 0 mm 5 mps 749 mmHg 37%
    17:00 +27°C° 0 mm 5 mps 749 mmHg 41%
    18:00 +26°C° 0 mm 5 mps 749 mmHg 45%
    19:00 +25°C° 0 mm 5 mps 749 mmHg 49%
    20:00 +23°C° 0 mm 5 mps 749 mmHg 51%
    21:00 +23°C° 0 mm 5 mps 749 mmHg 54%
    22:00 +22°C° 0 mm 5 mps 749 mmHg 57%
    23:00 +22°C° 0 mm 5 mps 749 mmHg 58%

    25 June, Monday

    Time Temperature Precipitation Wind Pressure Humidity
    00:00 +22°C° 0 mm 5 mps 749 mmHg 59%
    01:00 +22°C° 0 mm 5 mps 748 mmHg 59%
    02:00 +22°C° 0 mm 5 mps 748 mmHg 59%
    03:00 +22°C° 0 mm 4 mps 748 mmHg 59%
    04:00 +22°C° 0 mm 4 mps 748 mmHg 59%
    05:00 +23°C° 0 mm 5 mps 748 mmHg 58%
    06:00 +23°C° 0 mm 5 mps 748 mmHg 57%
    07:00 +25°C° 0 mm 5 mps 748 mmHg 56%
    08:00 +25°C° 0 mm 5 mps 748 mmHg 53%
    09:00 +26°C° 0 mm 5 mps 748 mmHg 50%
    10:00 +27°C° 0 mm 5 mps 748 mmHg 48%
    11:00 +27°C° 0.3 mm 5 mps 748 mmHg 47%
    12:00 +27°C° 0.3 mm 5 mps 748 mmHg 47%
    13:00 +27°C° 0.3 mm 6 mps 748 mmHg 47%
    14:00 +27°C° 1 mm 6 mps 748 mmHg 49%
    15:00 +26°C° 1 mm 6 mps 748 mmHg 51%
    16:00 +26°C° 1 mm 5 mps 748 mmHg 53%
    17:00 +25°C° 0.3 mm 5 mps 748 mmHg 55%
    18:00 +25°C° 0.3 mm 5 mps 748 mmHg 56%
    19:00 +23°C° 0.3 mm 5 mps 748 mmHg 57%
    20:00 +23°C° 0.6 mm 5 mps 748 mmHg 58%
    21:00 +23°C° 0.6 mm 6 mps 748 mmHg 60%
    22:00 +22°C° 0.6 mm 6 mps 748 mmHg 62%
    23:00 +22°C° 0.7 mm 6 mps 748 mmHg 64%

    26 June, Tuesday

    Time Temperature Precipitation Wind Pressure Humidity
    00:00 +22°C° 0.7 mm 5 mps 748 mmHg 66%
    01:00 +22°C° 0.7 mm 5 mps 747 mmHg 68%
    02:00 +21°C° 0.6 mm 5 mps 747 mmHg 69%
    03:00 +21°C° 0.6 mm 6 mps 747 mmHg 70%
    04:00 +21°C° 0.6 mm 6 mps 747 mmHg 70%
    05:00 +21°C° 0.6 mm 6 mps 747 mmHg 69%
    06:00 +21°C° 0.6 mm 6 mps 747 mmHg 68%
    07:00 +21°C° 0.6 mm 6 mps 747 mmHg 67%
    08:00 +22°C° 0.6 mm 6 mps 747 mmHg 66%
    09:00 +22°C° 0.6 mm 6 mps 747 mmHg 65%
    10:00 +23°C° 0.6 mm 7 mps 747 mmHg 63%
    11:00 +23°C° 0.4 mm 7 mps 747 mmHg 61%
    12:00 +24°C° 0.4 mm 7 mps 747 mmHg 59%
    13:00 +24°C° 0.4 mm 7 mps 747 mmHg 57%
    14:00 +26°C° 0.2 mm 7 mps 747 mmHg 56%
    15:00 +26°C° 0.2 mm 7 mps 747 mmHg 55%
    16:00 +26°C° 0.2 mm 7 mps 747 mmHg 54%
    17:00 +26°C° 0.1 mm 6 mps 747 mmHg 56%
    18:00 +24°C° 0.1 mm 6 mps 747 mmHg 58%
    19:00 +24°C° 0.1 mm 6 mps 747 mmHg 60%
    20:00 +23°C° 0.2 mm 6 mps 747 mmHg 61%
    21:00 +23°C° 0.2 mm 6 mps 747 mmHg 63%
    22:00 +23°C° 0.2 mm 7 mps 747 mmHg 64%
    23:00 +23°C° 0.2 mm 6 mps 747 mmHg 64%

    27 June, Wednesday

    Time Temperature Precipitation Wind Pressure Humidity
    00:00 +23°C° 0.2 mm 6 mps 746 mmHg 64%
    01:00 +23°C° 0.2 mm 6 mps 746 mmHg 64%
    02:00 +23°C° 0 mm 6 mps 746 mmHg 65%
    03:00 +23°C° 0 mm 6 mps 746 mmHg 66%
    04:00 +23°C° 0 mm 5 mps 746 mmHg 67%
    05:00 +23°C° 0.2 mm 6 mps 746 mmHg 65%
    06:00 +24°C° 0.2 mm 6 mps 746 mmHg 62%
    07:00 +26°C° 0.2 mm 6 mps 746 mmHg 59%
    08:00 +26°C° 0.2 mm 6 mps 746 mmHg 57%
    09:00 +27°C° 0.2 mm 6 mps 747 mmHg 54%
    10:00 +28°C° 0.2 mm 6 mps 747 mmHg 51%
    11:00 +28°C° 0 mm 6 mps 747 mmHg 50%
    12:00 +29°C° 0 mm 6 mps 747 mmHg 49%
    13:00 +29°C° 0 mm 6 mps 747 mmHg 47%
    14:00 +29°C° 0 mm 6 mps 747 mmHg 47%
    15:00 +29°C° 0 mm 5 mps 747 mmHg 46%
    16:00 +29°C° 0 mm 5 mps 747 mmHg 46%
    17:00 +28°C° 0 mm 5 mps 747 mmHg 49%
    18:00 +27°C° 0 mm 6 mps 747 mmHg 53%
    19:00 +26°C° 0 mm 6 mps 747 mmHg 56%
    20:00 +26°C° 0.1 mm 6 mps 747 mmHg 58%
    21:00 +26°C° 0.1 mm 6 mps 747 mmHg 60%
    22:00 +24°C° 0.1 mm 6 mps 747 mmHg 62%
    23:00 +24°C° 0.1 mm 6 mps 747 mmHg 63%
    Show more